Abilene Dyess, TX

6:27 PM CST on February 24, 2018 (GMT -0600)
Dyess Air Force Base

Weather History for KDYS - January, 2014

Change the Weather History Date:

Monday, January 27, 2014

  Actual Average Record
Temperature  
Mean Temperature 33 °F -  
Max Temperature 41 °F 57 °F 77 °F (2015)
Min Temperature 25 °F 35 °F 18 °F (2009)
Degree Days  
Heating Degree Days 32    
Moisture  
Dew Point 0 °F    
Average Humidity 29    
Maximum Humidity 58    
Minimum Humidity 18    
Precipitation  
Precipitation 0.00 in - - ()
Sea Level Pressure  
Sea Level Pressure 30.23 in    
Wind  
Wind Speed 15 mph (NNE)    
Max Wind Speed 25 mph    
Max Gust Speed 33 mph    
Visibility 10 miles    
Events      
Averages and records for this station are not official NWS values.
T = Trace of Precipitation, MM = Missing Value Source: NWS Daily Summary

Daily Weather History Graph

Daily Weather History Graph

Search for Another Location

Airport or City:

Trip Planner

Search our weather history database for the weather conditions in past years. The results will help you decide how hot, cold, wet, or windy it might be!

Date:

Astronomy

Jan. 27, 2014 Rise Set
Actual Time 7:36 AM CST 6:08 PM CST
Civil Twilight 7:10 AM CST 6:34 PM CST
Nautical Twilight 6:41 AM CST 7:03 PM CST
Astronomical Twilight 6:11 AM CST 7:32 PM CST
Moon 4:17 AM CST (1/27) 2:58 PM CST (1/27)
Length of Visible Light 11h 23m
Length of Day
10h 31m
Waning Crescent, 14% of the Moon is Illuminated
Jan 27
Waning Crescent
Jan 30
New
Feb 6
First Quarter
Feb 14
Full
Feb 22
Last Quarter

Hourly Weather History & Observations

Time (CST) Temp. Windchill Dew Point Humidity Pressure Visibility Wind Dir Wind Speed Gust Speed Precip Events Conditions
12:58 AM 35.6 °F 31.7 °F 15.8 °F 44% 29.84 in 10.0 mi West 4.6 mph - N/A   Clear
1:58 AM 40.3 °F 34.9 °F 16.9 °F 39% 29.87 in 10.0 mi NW 8.1 mph - N/A   Clear
2:58 AM 41.2 °F 34.1 °F 20.8 °F 44% 29.92 in 10.0 mi North 12.7 mph - N/A   Clear
3:58 AM 39.2 °F 28.3 °F 25.5 °F 58% 30.01 in 10.0 mi North 25.3 mph 33.4 mph N/A   Clear
4:58 AM 35.6 °F 24.0 °F 21.9 °F 58% 30.08 in 10.0 mi North 23.0 mph 28.8 mph N/A   Clear
5:58 AM 32.7 °F 20.1 °F 9.5 °F 38% 30.14 in 10.0 mi North 23.0 mph 31.1 mph N/A   Clear
6:58 AM 29.5 °F 15.8 °F 4.5 °F 35% 30.20 in 10.0 mi North 23.0 mph 32.2 mph N/A   Clear
7:58 AM 27.1 °F 13.1 °F 1.0 °F 33% 30.29 in 10.0 mi NNE 21.9 mph 25.3 mph N/A   Clear
8:58 AM 28.0 °F 13.9 °F -0.0 °F 30% 30.32 in 10.0 mi NNE 23.0 mph 29.9 mph N/A   Clear
9:58 AM 27.9 °F 14.4 °F -2.6 °F 27% 30.33 in 10.0 mi NNE 20.7 mph - N/A   Clear
10:58 AM 30.2 °F 16.8 °F -3.5 °F 23% 30.37 in 10.0 mi NNE 23.0 mph 29.9 mph N/A   Clear
11:58 AM 32.0 °F 20.8 °F -7.1 °F 18% 30.35 in 10.0 mi NE 17.3 mph 25.3 mph N/A   Partly Cloudy
12:58 PM 31.3 °F 21.1 °F -3.5 °F 22% 30.34 in 10.0 mi NNE 13.8 mph 25.3 mph N/A   Scattered Clouds
1:58 PM 32.0 °F 20.5 °F -2.7 °F 23% 30.30 in 10.0 mi NNE 18.4 mph 24.2 mph N/A   Mostly Cloudy
2:58 PM 30.6 °F 18.6 °F -4.0 °F 23% 30.27 in 10.0 mi NNE 18.4 mph - N/A   Mostly Cloudy
3:58 PM 30.0 °F 18.7 °F -5.4 °F 22% 30.26 in 10.0 mi NNE 16.1 mph 23.0 mph N/A   Partly Cloudy
4:58 PM 28.2 °F 15.5 °F -9.0 °F 20% 30.30 in 10.0 mi NNE 18.4 mph 21.9 mph N/A   Clear
5:58 PM 26.6 °F 15.7 °F -10.5 °F 19% 30.30 in 10.0 mi NNE 12.7 mph 21.9 mph N/A   Clear
6:58 PM 25.7 °F 14.6 °F -10.8 °F 20% 30.33 in 10.0 mi NNE 12.7 mph - N/A   Mostly Cloudy
7:58 PM 25.3 °F 14.7 °F -10.5 °F 21% 30.34 in 10.0 mi NNE 11.5 mph - N/A   Mostly Cloudy
8:58 PM 25.2 °F 13.3 °F -9.6 °F 22% 30.34 in 10.0 mi NE 13.8 mph - N/A   Overcast
9:58 PM 25.2 °F 13.3 °F -9.6 °F 22% 30.35 in 10.0 mi NNE 13.8 mph - N/A   Overcast
10:58 PM 25.2 °F 14.4 °F -9.6 °F 22% 30.35 in 10.0 mi NE 11.5 mph - N/A   Mostly Cloudy
11:58 PM 25.2 °F 14.4 °F -8.9 °F 22% 30.35 in 10.0 mi NE 11.5 mph - N/A   Overcast